THOR ABLESTAR DEB, 558

Orbit data source: Space-Track

THOR ABLESTAR DEB, 558 is space debris in LEO originally from a launch on Thu, 29 Jun 1961 UTC launched from the Air Force Eastern Test Range (AFETR). Debris objects in space refer to the collection of defunct objects orbiting the Earth. Examples of debris include non-operational satellites, rocket bodies, and fragments generated from explosions, collisions, or faulty payload assembly.

Loading next visibility...
Identifier
558, 1961-015GQ
Orbit
LEO
Country
Flag of USUS
Related business
Manufacturer
Unknown
Mission
Spacecraft
Bus & Motor
Unknown
Mass
Unknown
Launch date (UTC)
1961-06-29 (64 years ago)
Launch vehicle
Unknown
Launch site
Air Force Eastern Test Range (AFETR)
Object type
Payload
Rocket body
Debris
Shape & HBR
Unknown
Radar Cross Section
Small (<0.1 m²)

Expand to show TLE details & history
Last TLE update: 23 hours ago

TLE from 23 hours ago
0 THOR ABLESTAR DEB
1 00558U 61015GQ  25260.59030667  .00000088  00000-0  37242-3 0  9999
2 00558  65.7014  19.4681 0478473 209.2254 260.6642 12.86437233 14492
Epoch: 2025-09-17T14:10Z
TLE epoch observation values (Epoch: 2025-09-17T14:10:02.496Z)
Latitude
62.0218°
Longitude
-67.55473°
Altitude
1,402.072 km
Speed
7.129 km/s
True Right ascension
09h 26m 52s
True Declination
61° 53' 27"
Sunlit
Object was in daylight at epoch
Visualization orbit readout
Latitude
Unknown
Longitude
Unknown
Altitude
Unknown
Speed
Unknown
Apparent Right ascension
Unknown
Apparent Declination
Unknown
Sunlit
N/A
Visualization observer readout
Local Sidereal Time
06:02:56
Azimuth
Unknown
Elevation
Unknown
Doppler factor
Unknown
Orbital elements
Apogee altitude
1,682.35 km
Perigee altitude
946.226 km
Semi-major axis
7,692.425 km
Eccentricity
0.04785
Inclination
65.7014°
RAAN
19.4681°
Arg. of periapsis
209.2254°
True anomaly
255.31371°
Mean anomaly
260.6642°
Eccentric anomaly
257.98283°
Mean motion
3.21698 °/min
Orbital period
111.91 mins
BSTAR
0.00037242
Loading maneuver chart data...
Computing Atmospheric mass density...

Documentation

Showing up to 5 results
|